Regional Weather Roundup
Issued by NWS

Home | Current Version | Previous Version | Graphics & Text | Print | Product List | Glossary On
Versions: 1 2 3 4 5 6 7 8 9 10 11 12 13 14 15 16 17 18 19 20 21 22 23 24 25 26 27 28 29 30 31 32 33 34 35 36 37 38 39 40 41 42 43 44 45 46 47 48 49 50
000
ASUS43 KLOT 030406
RWRIL

ILLINOIS REGIONAL WEATHER ROUNDUP
NATIONAL WEATHER SERVICE CHICAGO/ROMEOVILLE IL
1100 PM CDT TUE SEP 02 2014

NOTE: "FAIR" INDICATES FEW OR NO CLOUDS BELOW 12,000 FEET WITH NO
SIGNIFICANT WEATHER AND/OR OBSTRUCTIONS TO VISIBILITY.

* THESE STATIONS ARE NOT UNDER NWS QUALITY CONTROL. THEY ALSO MAY NOT
  REPORT WEATHER SUCH AS PRECIPITATION OR FOG.

ILZ001-002-007-009-015-016-024-030500-
NORTHWEST ILLINOIS

CITY           SKY/WX    TMP DP  RH WIND       PRES   REMARKS
MOLINE         CLEAR     64  61  90 CALM      29.98R
STERLING*      CLEAR     61  57  88 CALM      29.98R
SAVANNA*       CLEAR     62  60  93 CALM      29.96S
$$

ILZ003-004-008-010-011-017-018-030500-
NORTH CENTRAL ILLINOIS

CITY           SKY/WX    TMP DP  RH WIND       PRES   REMARKS
ROCKFORD       CLEAR     63  59  87 S3        29.98R
FREEPORT*      CLEAR     60  58  91 CALM      29.99R
ROCHELLE*      CLEAR     60  59  96 S6        29.98R
DE KALB*       CLEAR     62  58  88 SW3       29.99R
PERU*          CLEAR     67  62  85 W3        29.98R
$$

ILZ005-006-012>014-019>023-030500-
NORTHEAST ILLINOIS

CITY           SKY/WX    TMP DP  RH WIND       PRES   REMARKS
CHICAGO-OHARE  PTCLDY    70  59  68 W3        29.96R
CHICAGO-MIDWAY PTCLDY    73  60  63 SW6       29.95R
AURORA         CLEAR     64  60  87 CALM      29.97R
LANSING*         N/A    N/A N/A N/A MISG        N/A
JOLIET*        CLEAR     64  61  91 CALM      29.98R
WAUKEGAN       CLEAR     62  60  93 CALM      29.95R
DUPAGE AIRPORT CLEAR     65  62  90 CALM      29.96R
KANKAKEE*      CLEAR     63  62  97 S3        29.99R
WHEELING       CLEAR     69  61  75 CALM      29.96R
MORRIS*        CLEAR     66  64  93 CALM      29.97R
ROMEOVILLE*    CLEAR     67  61  81 W3        29.97R
NORTHERLY ISL    N/A     75  58  55 W3          N/A
$$

LMZ740>746-030500-
SOUTHERN LAKE MICHIGAN

STATION/POSITION SKY/WX   TEMP    WIND        PRES    VSBY  WAVE
                          AIR SEA DIR/SP/G                  HT/PER
                          (F)     (DEG/KT/KT) (MB)    (MI)  (FT/S)
SOUTHERN BUOY              72 71  200/  6/  8 1013.8R         0
WAUKEGAN HARBOR            69        CALM       N/A
HARRISON CRIB              73        CALM       N/A
BURNHAM HARBOR             75     260/  3/  8   N/A
CALUMET HARBOR             74     210/  3/  4 1013.2R
MICHIGAN CITY              70     130/  6/  8   N/A
MICHIGAN CITY 6N           71 72  160/  8/ 10   N/A           1
ST. JOSEPH                 72 73  160/  6/  8   N/A           0
$$

ILZ025>027-034>036-040-047-049-050-058-095>099-030500-
WEST-CENTRAL ILLINOIS

CITY           SKY/WX    TMP DP  RH WIND       PRES   REMARKS
QUINCY         CLEAR     69  64  84 S3        30.00R
GALESBURG*     CLEAR     61  59  91 CALM      29.99R
MACOMB*        CLEAR     62  61  97 CALM      30.01R
JACKSONVILLE*  CLEAR     71  68  89 SW6       30.02R
PITTSFIELD*    CLEAR     71  66  87 S5        30.02R
$$

ILZ028>032-037-038-041>044-048-051>054-059>061-030500-
CENTRAL ILLINOIS

CITY           SKY/WX    TMP DP  RH WIND       PRES   REMARKS
PONTIAC        PTCLDY    66  66 100 CALM      29.98S
DECATUR        CLEAR     70  67  90 SW5       30.01R
PEORIA         PTCLDY    69  64  84 CALM      29.99R
LACON*         PTCLDY    66  64  91 CALM      29.98R
LINCOLN*       PTCLDY    71  67  87 CALM      29.97R
SPRINGFIELD    LGT RAIN  69  66  90 SW5       30.00R
TAYLORVILLE    PTCLDY    66  64  94 SW3       30.02R
$$

ILZ033-039-045-046-055>057-062-063-030500-
EAST-CENTRAL ILLINOIS

CITY           SKY/WX    TMP DP  RH WIND       PRES   REMARKS
CHAMPAIGN      CLEAR     68  66  93 S6        30.01R
DANVILLE*      CLEAR     67  66  99 SW3       29.98R
RANTOUL*       PTCLDY    69  64  86 SW5       30.01R
MATTOON        CLEAR     70  67  90 S5        30.01R
PARIS*         PTCLDY    67  66  98 SW5       30.02R
$$

ILZ079-100>102-030500-
SOUTHWEST ILLINOIS

CITY           SKY/WX    TMP DP  RH WIND       PRES   REMARKS
BELLEVILLE     FOG       69  69  99 W2        30.02R VSB 3/4
CAHOKIA*       CLEAR     69  67  93 CALM      30.02R
SPARTA*        CLEAR     68  68  99 CALM      30.04R
$$

ILZ064>066-069>071-074>076-080>082-084>086-088>090-092>094-030500-
SOUTH-CENTRAL ILLINOIS

CITY           SKY/WX    TMP DP  RH WIND       PRES   REMARKS
CARBONDALE     CLEAR     70  68  93 CALM      30.02R
CAIRO*         PTCLDY    73  69  89 CALM      30.01S
EFFINGHAM*     CLEAR     68  65  90 CALM      30.02S
MARION         CLEAR     70  70 100 CALM      30.02S FOG
MT. VERNON     CLEAR     66  61  82 CALM      30.03R
CENTRALIA*     CLEAR     66  64  93 CALM      30.03R FOG
SALEM*         FOG       69  68  98 CALM      30.03R VSB 3/4
METROPOLIS*    CLEAR     71  71 100 CALM      30.00F
$$

ILZ067-068-072-073-078-083-087-091-030500-
SOUTHEAST ILLINOIS

CITY           SKY/WX    TMP DP  RH WIND       PRES   REMARKS
LAWRENCEVILLE  CLEAR     67  67 100 NW3       30.02R FOG
FLORA*         CLEAR     66  65  97 CALM      30.03R
FAIRFIELD*     CLEAR     68  68 100 CALM      30.02R FOG
HARRISBURG*    FOG       68  68 100 CALM      30.03R VSB 1/2
ROBINSON*      FOG       65  65  98 CALM      30.02S VSB 3/4
CARMI*           N/A     69  68  99 CALM      30.01R FOG
$$

ABBREVIATIONS USED IN REMARKS
   TC - TEMPERATURE IN CELSIUS
  WCI - WIND CHILL INDEX
   HX - HEAT INDEX
  VSB - VISIBILITY
$$




USA.gov is the U.S. government's official web portal to all federal, state and local government web resources and services.